Flag for U.S.A. Weather past 2 weeks in Birmingham, Alabama, U.S.A.

Now
82 °F

Passing clouds.


Feels Like: 90 °F
Forecast: 76 / 93 °F
Wind: 6 mph from North

Location: Birmingham International Airport

Current Time: Jul 30, 2015 at 9:31:49 AM

Latest Report: Jul 30, 2015 at 8:53 AM


Visibility: 8 mi

Pressure: 30.01 "Hg

Humidity: 85%

Dew point: 77 °F

Location of BirminghamLocation

Historic Weather in Birmingham — Graph

°F

Birmingham temperature yesterday

Maximum temperature yesterday: 94 °F (at 1:53 PM)
Minimum temperature yesterday: 77 °F (at 4:53 AM)
Average temperature yesterday: 81 °F

Past Weeks' High & Low Weather Summary

 TemperatureHumidityPressure
High98 °F (Jul 20, 4:53 PM)100% (Jul 24, 4:53 AM)30.05 "Hg (Jul 24, 4:53 AM)
Low71 °F (Jul 25, 4:53 AM)35% (Jul 20, 4:53 PM)29.83 "Hg (Jul 15, 4:53 PM)
Average83 °F74%29.96 "Hg
* Reported Jul 15 7:53 AM — Jul 30 7:53 AM, Birmingham, Weather by CustomWeather, © 2015

Note: Actual official high and low records may vary slightly from our data, if they occured in-between our weather recording intervals... More about our weather records

Advertising

Birmingham weather history for previous 24 hours

 ConditionsComfort  
Time TempWeatherWind HumidityBarometerVisibility
7:53 AM
Thu, Jul 30
79 °FPassing clouds.5 mph90%30.01 "Hg7 mi
6:53 AM76 °FFog.No wind97%30.00 "Hg6 mi
5:53 AM75 °FPassing clouds.No wind96%29.98 "Hg7 mi
4:53 AM76 °FClear.No wind94%29.98 "Hg7 mi
3:53 AM76 °FClear.No wind97%29.98 "Hg7 mi
2:53 AM76 °FPassing clouds.3 mph97%29.98 "Hg8 mi
1:53 AM77 °FPassing clouds.No wind94%29.99 "Hg9 mi
12:53 AM77 °FPassing clouds.No wind96%30.01 "Hg10 mi
11:53 PM
Wed, Jul 29
77 °FPassing clouds.No wind96%30.02 "Hg9 mi
10:53 PM78 °FPassing clouds.No wind93%30.01 "Hg9 mi
9:53 PM78 °FPassing clouds.No wind93%30.00 "Hg10 mi
8:53 PM79 °FPassing clouds.No wind94%29.98 "Hg9 mi
7:53 PM81 °FPartly sunny.3 mph88%29.98 "Hg10 mi
6:53 PM83 °FPartly sunny.5 mph77%29.97 "Hg10 mi
5:53 PM83 °FPartly sunny.No wind77%29.97 "Hg10 mi
4:53 PM80 °FPartly sunny.No wind87%29.98 "Hg10 mi
3:53 PM80 °FPartly sunny.No wind85%29.98 "Hg10 mi
2:53 PM77 °FThunderstorms. Cloudy.5 mph90%30.00 "Hg7 mi
1:53 PM94 °FScattered clouds.9 mph52%29.98 "Hg10 mi
12:53 PM92 °FScattered clouds.16 mph56%30.00 "Hg10 mi
11:53 AM90 °FBroken clouds.10 mph63%30.03 "Hg10 mi
10:53 AM86 °FPartly sunny.10 mph70%30.03 "Hg10 mi
9:53 AM86 °FPartly sunny.8 mph70%30.03 "Hg10 mi
Weather by CustomWeather, © 2015

See weather overviewHow to use our weather pages